Time,TemperatureF,DewpointF,PressureIn,WindDirection,WindDirectionDegrees,WindSpeedMPH,WindSpeedGustMPH,Humidity,HourlyPrecipIn,Conditions,Clouds,dailyrainin,SoftwareType,DateUTC
2013-11-04 00:01:00,37.7,26.6,30.41,West,279,6.0,18.0,64,0.00,,---,0.00,VWS V14.01,2013-11-04 05:01:00,
2013-11-04 00:03:00,37.7,26.6,30.41,WNW,291,6.0,11.0,64,0.00,,---,0.00,VWS V14.01,2013-11-04 05:03:00,
2013-11-04 00:08:00,37.4,26.0,30.41,North,7,9.0,16.0,63,0.00,,---,0.00,VWS V14.01,2013-11-04 05:08:00,
2013-11-04 00:13:00,37.3,26.6,30.42,NNW,343,6.0,16.0,65,0.00,,---,0.00,VWS V14.01,2013-11-04 05:13:00,
2013-11-04 00:18:00,37.2,26.5,30.42,West,266,6.0,16.0,65,0.00,,---,0.00,VWS V14.01,2013-11-04 05:18:00,
2013-11-04 00:23:00,37.1,26.1,30.42,WNW,283,7.0,19.0,64,0.00,,---,0.00,VWS V14.01,2013-11-04 05:23:00,
2013-11-04 00:28:00,36.9,25.5,30.41,NW,307,6.0,19.0,63,0.00,,---,0.00,VWS V14.01,2013-11-04 05:28:00,
2013-11-04 00:33:00,36.8,25.8,30.42,NW,304,14.0,15.0,64,0.00,,---,0.00,VWS V14.01,2013-11-04 05:33:00,
2013-11-04 00:38:00,36.7,25.7,30.41,WNW,283,6.0,15.0,64,0.00,,---,0.00,VWS V14.01,2013-11-04 05:38:00,
2013-11-04 00:43:00,36.7,26.1,30.42,NNW,331,9.0,18.0,65,0.00,,---,0.00,VWS V14.01,2013-11-04 05:43:00,
2013-11-04 00:48:00,36.6,26.0,30.42,WNW,303,9.0,20.0,65,0.00,,---,0.00,VWS V14.01,2013-11-04 05:48:00,
2013-11-04 00:53:00,36.5,26.6,30.42,NW,324,8.0,20.0,67,0.00,,---,0.00,VWS V14.01,2013-11-04 05:53:00,
2013-11-04 00:58:00,36.7,26.8,30.42,West,269,6.0,20.0,67,0.00,,---,0.00,VWS V14.01,2013-11-04 05:58:00,
2013-11-04 01:03:00,36.7,27.1,30.42,ENE,60,5.0,13.0,68,0.00,,---,0.00,VWS V14.01,2013-11-04 06:03:00,
2013-11-04 01:08:00,36.8,26.5,30.42,WNW,295,3.0,19.0,66,0.00,,---,0.00,VWS V14.01,2013-11-04 06:08:00,
2013-11-04 01:13:00,36.8,26.1,30.42,ESE,123,10.0,24.0,65,0.00,,---,0.00,VWS V14.01,2013-11-04 06:13:00,
2013-11-04 01:18:00,36.7,26.1,30.42,NE,56,9.0,24.0,65,0.00,,---,0.00,VWS V14.01,2013-11-04 06:18:00,
2013-11-04 01:23:00,36.7,26.1,30.43,NW,323,9.0,24.0,65,0.00,,---,0.00,VWS V14.01,2013-11-04 06:23:00,
2013-11-04 01:28:00,36.7,26.4,30.43,NW,323,9.0,24.0,66,0.00,,---,0.00,VWS V14.01,2013-11-04 06:28:00,
2013-11-04 01:33:00,36.6,26.3,30.43,West,281,12.0,19.0,66,0.00,,---,0.00,VWS V14.01,2013-11-04 06:33:00,
2013-11-04 01:38:00,36.6,26.3,30.43,East,79,12.0,24.0,66,0.00,,---,0.00,VWS V14.01,2013-11-04 06:38:00,
2013-11-04 01:43:00,36.6,26.3,30.44,NNW,338,5.0,24.0,66,0.00,,---,0.00,VWS V14.01,2013-11-04 06:43:00,
2013-11-04 01:48:00,36.6,26.7,30.44,NW,304,12.0,24.0,67,0.00,,---,0.00,VWS V14.01,2013-11-04 06:48:00,
2013-11-04 01:53:00,36.6,26.3,30.44,NNW,335,15.0,24.0,66,0.00,,---,0.00,VWS V14.01,2013-11-04 06:53:00,
2013-11-04 01:58:00,36.5,26.2,30.44,North,354,11.0,24.0,66,0.00,,---,0.00,VWS V14.01,2013-11-04 06:58:00,
2013-11-04 02:03:00,36.5,26.2,30.44,NW,311,14.0,20.0,66,0.00,,---,0.00,VWS V14.01,2013-11-04 07:03:00,
2013-11-04 02:08:00,36.5,26.2,30.44,NNE,30,10.0,20.0,66,0.00,,---,0.00,VWS V14.01,2013-11-04 07:08:00,
2013-11-04 02:13:00,36.4,26.5,30.44,NE,35,11.0,20.0,67,0.00,,---,0.00,VWS V14.01,2013-11-04 07:13:00,
2013-11-04 02:18:00,36.3,26.4,30.45,NNW,348,7.0,20.0,67,0.00,,---,0.00,VWS V14.01,2013-11-04 07:18:00,
2013-11-04 02:23:00,36.3,26.4,30.45,WNW,297,10.0,20.0,67,0.00,,---,0.00,VWS V14.01,2013-11-04 07:23:00,
2013-11-04 02:28:00,36.2,26.3,30.45,NW,315,10.0,20.0,67,0.00,,---,0.00,VWS V14.01,2013-11-04 07:28:00,
2013-11-04 02:33:00,36.2,26.3,30.45,ENE,70,9.0,19.0,67,0.00,,---,0.00,VWS V14.01,2013-11-04 07:33:00,
2013-11-04 02:38:00,36.2,26.7,30.45,NNW,339,6.0,19.0,68,0.00,,---,0.00,VWS V14.01,2013-11-04 07:38:00,
2013-11-04 02:43:00,36.1,26.6,30.45,NE,49,10.0,19.0,68,0.00,,---,0.00,VWS V14.01,2013-11-04 07:43:00,
2013-11-04 02:48:00,36.1,26.6,30.45,East,100,8.0,19.0,68,0.00,,---,0.00,VWS V14.01,2013-11-04 07:48:00,
2013-11-04 02:53:00,36.1,26.6,30.45,NW,307,12.0,19.0,68,0.00,,---,0.00,VWS V14.01,2013-11-04 07:53:00,
2013-11-04 02:58:00,36.0,26.5,30.45,North,6,13.0,19.0,68,0.00,,---,0.00,VWS V14.01,2013-11-04 07:58:00,
2013-11-04 03:03:00,36.0,26.8,30.45,NNE,12,8.0,15.0,69,0.00,,---,0.00,VWS V14.01,2013-11-04 08:03:00,
2013-11-04 03:08:00,36.0,26.8,30.45,NNW,333,4.0,19.0,69,0.00,,---,0.00,VWS V14.01,2013-11-04 08:08:00,
2013-11-04 03:13:00,36.1,27.3,30.45,North,353,16.0,19.0,70,0.00,,---,0.00,VWS V14.01,2013-11-04 08:13:00,
2013-11-04 03:18:00,36.1,27.3,30.46,NNE,23,12.0,19.0,70,0.00,,---,0.00,VWS V14.01,2013-11-04 08:18:00,
2013-11-04 03:23:00,36.2,27.0,30.45,NW,304,10.0,19.0,69,0.00,,---,0.00,VWS V14.01,2013-11-04 08:23:00,
2013-11-04 03:28:00,36.2,27.0,30.46,NE,39,10.0,19.0,69,0.00,,---,0.00,VWS V14.01,2013-11-04 08:28:00,
2013-11-04 03:33:00,36.1,26.6,30.46,NW,307,7.0,15.0,68,0.00,,---,0.00,VWS V14.01,2013-11-04 08:33:00,
2013-11-04 03:38:00,36.0,26.1,30.47,North,356,18.0,18.0,67,0.00,,---,0.00,VWS V14.01,2013-11-04 08:38:00,
2013-11-04 03:43:00,36.0,26.5,30.47,NNW,333,9.0,18.0,68,0.00,,---,0.00,VWS V14.01,2013-11-04 08:43:00,
2013-11-04 03:48:00,35.9,26.4,30.47,NNW,345,12.0,18.0,68,0.00,,---,0.00,VWS V14.01,2013-11-04 08:48:00,
2013-11-04 03:53:00,35.9,26.4,30.47,North,10,12.0,19.0,68,0.00,,---,0.00,VWS V14.01,2013-11-04 08:53:00,
2013-11-04 03:58:00,35.9,26.4,30.47,NW,318,18.0,19.0,68,0.00,,---,0.00,VWS V14.01,2013-11-04 08:58:00,
2013-11-04 04:03:00,35.8,25.9,30.48,WNW,292,14.0,16.0,67,0.00,,---,0.00,VWS V14.01,2013-11-04 09:03:00,
2013-11-04 04:08:00,35.9,26.0,30.48,East,83,9.0,19.0,67,0.00,,---,0.00,VWS V14.01,2013-11-04 09:08:00,
2013-11-04 04:13:00,35.9,26.0,30.48,North,6,13.0,19.0,67,0.00,,---,0.00,VWS V14.01,2013-11-04 09:13:00,
2013-11-04 04:18:00,36.0,26.1,30.49,SSW,201,12.0,19.0,67,0.00,,---,0.00,VWS V14.01,2013-11-04 09:18:00,
2013-11-04 04:24:00,36.0,26.1,30.48,WNW,297,11.0,19.0,67,0.00,,---,0.00,VWS V14.01,2013-11-04 09:24:00,
2013-11-04 04:29:00,36.0,26.1,30.49,SW,220,5.0,19.0,67,0.00,,---,0.00,VWS V14.01,2013-11-04 09:29:00,
2013-11-04 04:34:00,36.0,26.5,30.49,NNE,20,6.0,16.0,68,0.00,,---,0.00,VWS V14.01,2013-11-04 09:34:00,
2013-11-04 04:39:00,36.0,26.5,30.49,North,356,7.0,18.0,68,0.00,,---,0.00,VWS V14.01,2013-11-04 09:39:00,
2013-11-04 04:44:00,36.1,26.6,30.50,NW,315,9.0,18.0,68,0.00,,---,0.00,VWS V14.01,2013-11-04 09:44:00,
2013-11-04 04:49:00,36.1,26.9,30.50,ENE,67,13.0,21.0,69,0.00,,---,0.00,VWS V14.01,2013-11-04 09:49:00,
2013-11-04 04:54:00,36.1,27.3,30.50,NNW,341,2.0,21.0,70,0.00,,---,0.00,VWS V14.01,2013-11-04 09:54:00,
2013-11-04 04:59:00,36.0,27.2,30.50,East,79,4.0,21.0,70,0.00,,---,0.00,VWS V14.01,2013-11-04 09:59:00,
2013-11-04 05:04:00,35.8,27.0,30.50,NW,317,9.0,11.0,70,0.00,,---,0.00,VWS V14.01,2013-11-04 10:04:00,
2013-11-04 05:09:00,35.8,27.0,30.50,NNW,337,9.0,16.0,70,0.00,,---,0.00,VWS V14.01,2013-11-04 10:09:00,
2013-11-04 05:14:00,35.8,26.6,30.50,NW,319,4.0,16.0,69,0.00,,---,0.00,VWS V14.01,2013-11-04 10:14:00,
2013-11-04 05:19:00,35.7,26.5,30.50,ENE,66,5.0,16.0,69,0.00,,---,0.00,VWS V14.01,2013-11-04 10:19:00,
2013-11-04 05:24:00,35.7,26.2,30.50,NE,37,6.0,16.0,68,0.00,,---,0.00,VWS V14.01,2013-11-04 10:24:00,
2013-11-04 05:29:00,35.7,25.8,30.51,WNW,299,4.0,18.0,67,0.00,,---,0.00,VWS V14.01,2013-11-04 10:29:00,
2013-11-04 05:34:00,35.7,25.5,30.51,WNW,283,8.0,16.0,66,0.00,,---,0.00,VWS V14.01,2013-11-04 10:34:00,
2013-11-04 05:39:00,35.7,25.8,30.51,NW,316,14.0,16.0,67,0.00,,---,0.00,VWS V14.01,2013-11-04 10:39:00,
2013-11-04 05:44:00,35.7,26.2,30.51,NNW,334,5.0,18.0,68,0.00,,---,0.00,VWS V14.01,2013-11-04 10:44:00,
2013-11-04 05:49:00,35.7,26.2,30.52,WSW,245,15.0,18.0,68,0.00,,---,0.00,VWS V14.01,2013-11-04 10:49:00,
2013-11-04 05:54:00,35.6,25.7,30.52,WNW,296,8.0,19.0,67,0.00,,---,0.00,VWS V14.01,2013-11-04 10:54:00,
2013-11-04 05:59:00,35.6,26.1,30.52,WNW,290,7.0,19.0,68,0.00,,---,0.00,VWS V14.01,2013-11-04 10:59:00,
2013-11-04 06:04:00,35.6,26.1,30.52,NW,307,7.0,18.0,68,0.00,,---,0.00,VWS V14.01,2013-11-04 11:04:00,
2013-11-04 06:09:00,35.6,26.1,30.52,ENE,68,10.0,18.0,68,0.00,,---,0.00,VWS V14.01,2013-11-04 11:09:00,
2013-11-04 06:14:00,35.6,26.1,30.52,WNW,288,2.0,21.0,68,0.00,,---,0.00,VWS V14.01,2013-11-04 11:14:00,
2013-11-04 06:15:00,35.6,26.5,30.52,North,1,3.0,21.0,69,0.00,,---,0.00,VWS V14.01,2013-11-04 11:15:00,
2013-11-04 06:20:00,35.6,26.5,30.52,NNE,18,5.0,21.0,69,0.00,,---,0.00,VWS V14.01,2013-11-04 11:20:00,
2013-11-04 06:22:00,35.6,26.5,30.52,NW,323,5.0,21.0,69,0.00,,---,0.00,VWS V14.01,2013-11-04 11:22:00,
2013-11-04 06:27:00,35.5,26.4,30.52,NNW,339,11.0,21.0,69,0.00,,---,0.00,VWS V14.01,2013-11-04 11:27:00,
2013-11-04 06:32:00,35.5,26.0,30.53,East,83,3.0,16.0,68,0.00,,---,0.00,VWS V14.01,2013-11-04 11:32:00,
2013-11-04 06:37:00,35.5,26.0,30.53,WNW,299,3.0,16.0,68,0.00,,---,0.00,VWS V14.01,2013-11-04 11:37:00,
2013-11-04 06:42:00,35.5,26.7,30.53,NNE,12,11.0,16.0,70,0.00,,---,0.00,VWS V14.01,2013-11-04 11:42:00,
2013-11-04 06:47:00,35.6,26.8,30.53,NW,304,7.0,16.0,70,0.00,,---,0.00,VWS V14.01,2013-11-04 11:47:00,
2013-11-04 06:52:00,35.6,27.1,30.53,ENE,70,7.0,16.0,71,0.00,,---,0.00,VWS V14.01,2013-11-04 11:52:00,
2013-11-04 06:57:00,35.7,26.9,30.54,NE,53,7.0,16.0,70,0.00,,---,0.00,VWS V14.01,2013-11-04 11:57:00,
2013-11-04 07:02:00,36.0,26.8,30.54,WNW,290,9.0,16.0,69,0.00,,---,0.00,VWS V14.01,2013-11-04 12:02:00,
2013-11-04 07:07:00,36.4,27.2,30.54,NNE,20,8.0,16.0,69,0.00,,---,0.00,VWS V14.01,2013-11-04 12:07:00,
2013-11-04 07:12:00,36.7,27.9,30.54,NNW,329,7.0,16.0,70,0.00,,---,0.00,VWS V14.01,2013-11-04 12:12:00,
2013-11-04 07:17:00,36.9,28.0,30.54,WNW,297,13.0,16.0,70,0.00,,---,0.00,VWS V14.01,2013-11-04 12:17:00,
2013-11-04 07:22:00,37.1,27.5,30.54,West,262,10.0,16.0,68,0.00,,---,0.00,VWS V14.01,2013-11-04 12:22:00,
2013-11-04 07:27:00,37.4,27.5,30.54,North,8,11.0,16.0,67,0.00,,---,0.00,VWS V14.01,2013-11-04 12:27:00,
2013-11-04 07:32:00,37.6,27.3,30.54,NE,48,11.0,14.0,66,0.00,,---,0.00,VWS V14.01,2013-11-04 12:32:00,
2013-11-04 07:37:00,37.8,27.8,30.55,West,272,10.0,14.0,67,0.00,,---,0.00,VWS V14.01,2013-11-04 12:37:00,
2013-11-04 07:42:00,38.0,28.0,30.55,ENE,70,8.0,17.0,67,0.00,,---,0.00,VWS V14.01,2013-11-04 12:42:00,
2013-11-04 07:47:00,38.4,28.8,30.55,NE,38,7.0,17.0,68,0.00,,---,0.00,VWS V14.01,2013-11-04 12:47:00,
2013-11-04 07:52:00,38.6,28.6,30.55,West,280,10.0,17.0,67,0.00,,---,0.00,VWS V14.01,2013-11-04 12:52:00,
2013-11-04 07:57:00,38.9,28.9,30.56,North,9,9.0,17.0,67,0.00,,---,0.00,VWS V14.01,2013-11-04 12:57:00,
2013-11-04 08:02:00,38.9,28.5,30.56,NNE,15,7.0,12.0,66,0.00,,---,0.00,VWS V14.01,2013-11-04 13:02:00,
2013-11-04 08:07:00,39.2,29.2,30.56,WNW,283,12.0,15.0,67,0.00,,---,0.00,VWS V14.01,2013-11-04 13:07:00,
2013-11-04 08:12:00,39.3,28.9,30.56,North,7,10.0,15.0,66,0.00,,---,0.00,VWS V14.01,2013-11-04 13:12:00,
2013-11-04 08:17:00,39.6,29.6,30.56,NNE,21,6.0,15.0,67,0.00,,---,0.00,VWS V14.01,2013-11-04 13:17:00,
2013-11-04 08:22:00,39.9,29.5,30.56,NNW,335,9.0,15.0,66,0.00,,---,0.00,VWS V14.01,2013-11-04 13:22:00,
2013-11-04 08:27:00,40.0,29.6,30.56,North,9,9.0,16.0,66,0.00,,---,0.00,VWS V14.01,2013-11-04 13:27:00,
2013-11-04 08:32:00,40.4,30.0,30.56,SW,219,4.0,15.0,66,0.00,,---,0.00,VWS V14.01,2013-11-04 13:32:00,
2013-11-04 08:37:00,40.5,30.0,30.57,NE,54,6.0,18.0,66,0.00,,---,0.00,VWS V14.01,2013-11-04 13:37:00,
2013-11-04 08:42:00,40.7,29.9,30.57,NNW,330,9.0,18.0,65,0.00,,---,0.00,VWS V14.01,2013-11-04 13:42:00,
2013-11-04 08:47:00,40.7,29.5,30.57,NW,311,14.0,18.0,64,0.00,,---,0.00,VWS V14.01,2013-11-04 13:47:00,
2013-11-04 08:52:00,40.9,29.3,30.57,NNW,342,10.0,18.0,63,0.00,,---,0.00,VWS V14.01,2013-11-04 13:52:00,
2013-11-04 08:57:00,41.2,30.3,30.57,NW,305,9.0,18.0,65,0.00,,---,0.00,VWS V14.01,2013-11-04 13:57:00,
2013-11-04 09:02:00,41.5,30.2,30.58,NNW,342,7.0,12.0,64,0.00,,---,0.00,VWS V14.01,2013-11-04 14:02:00,
2013-11-04 09:07:00,41.9,30.6,30.58,NNW,338,5.0,13.0,64,0.00,,---,0.00,VWS V14.01,2013-11-04 14:07:00,
2013-11-04 09:12:00,42.3,30.6,30.58,WNW,290,11.0,13.0,63,0.00,,---,0.00,VWS V14.01,2013-11-04 14:12:00,
2013-11-04 09:17:00,42.6,31.3,30.58,North,350,5.0,16.0,64,0.00,,---,0.00,VWS V14.01,2013-11-04 14:17:00,
2013-11-04 09:22:00,42.9,31.2,30.58,NNE,27,10.0,16.0,63,0.00,,---,0.00,VWS V14.01,2013-11-04 14:22:00,
2013-11-04 09:27:00,43.3,32.0,30.58,NE,53,10.0,16.0,64,0.00,,---,0.00,VWS V14.01,2013-11-04 14:27:00,
2013-11-04 09:32:00,43.5,31.8,30.58,NW,322,6.0,9.0,63,0.00,,---,0.00,VWS V14.01,2013-11-04 14:32:00,
2013-11-04 09:37:00,44.1,32.3,30.58,NNE,27,1.0,10.0,63,0.00,,---,0.00,VWS V14.01,2013-11-04 14:37:00,
2013-11-04 09:42:00,44.4,31.8,30.58,NNE,25,13.0,16.0,61,0.00,,---,0.00,VWS V14.01,2013-11-04 14:42:00,
2013-11-04 09:47:00,44.1,31.9,30.58,North,359,8.0,16.0,62,0.00,,---,0.00,VWS V14.01,2013-11-04 14:47:00,
2013-11-04 09:52:00,44.2,32.0,30.58,NW,322,4.0,16.0,62,0.00,,---,0.00,VWS V14.01,2013-11-04 14:52:00,
2013-11-04 09:57:00,44.1,32.3,30.58,NNE,31,9.0,16.0,63,0.00,,---,0.00,VWS V14.01,2013-11-04 14:57:00,
2013-11-04 10:02:00,44.3,33.3,30.57,NE,38,5.0,10.0,65,0.00,,---,0.00,VWS V14.01,2013-11-04 15:02:00,
2013-11-04 10:07:00,44.9,33.9,30.58,WNW,300,8.0,14.0,65,0.00,,---,0.00,VWS V14.01,2013-11-04 15:07:00,
2013-11-04 10:12:00,45.0,33.6,30.57,NE,53,5.0,14.0,64,0.00,,---,0.00,VWS V14.01,2013-11-04 15:12:00,
2013-11-04 10:17:00,44.8,33.4,30.57,North,8,2.0,17.0,64,0.00,,---,0.00,VWS V14.01,2013-11-04 15:17:00,
2013-11-04 10:22:00,45.3,33.9,30.57,NE,39,9.0,17.0,64,0.00,,---,0.00,VWS V14.01,2013-11-04 15:22:00,
2013-11-04 10:27:00,45.2,33.8,30.57,NE,45,4.0,17.0,64,0.00,,---,0.00,VWS V14.01,2013-11-04 15:27:00,
2013-11-04 10:32:00,45.1,33.7,30.57,NNE,32,6.0,16.0,64,0.00,,---,0.00,VWS V14.01,2013-11-04 15:32:00,
2013-11-04 10:37:00,45.2,33.4,30.57,NNW,330,7.0,16.0,63,0.00,,---,0.00,VWS V14.01,2013-11-04 15:37:00,
2013-11-04 10:42:00,45.5,32.8,30.58,NNW,333,11.0,16.0,61,0.00,,---,0.00,VWS V14.01,2013-11-04 15:42:00,
2013-11-04 10:47:00,45.6,33.8,30.58,NNE,28,6.0,17.0,63,0.00,,---,0.00,VWS V14.01,2013-11-04 15:47:00,
2013-11-04 10:52:00,45.6,33.3,30.58,NNE,19,10.0,17.0,62,0.00,,---,0.00,VWS V14.01,2013-11-04 15:52:00,
2013-11-04 10:57:00,45.3,33.9,30.58,NNE,33,4.0,17.0,64,0.00,,---,0.00,VWS V14.01,2013-11-04 15:57:00,
2013-11-04 11:02:00,45.6,34.1,30.58,NE,46,8.0,14.0,64,0.00,,---,0.00,VWS V14.01,2013-11-04 16:02:00,
2013-11-04 11:07:00,45.5,34.4,30.58,North,4,10.0,14.0,65,0.00,,---,0.00,VWS V14.01,2013-11-04 16:07:00,
2013-11-04 11:12:00,45.3,33.9,30.58,NW,320,4.0,14.0,64,0.00,,---,0.00,VWS V14.01,2013-11-04 16:12:00,
2013-11-04 11:17:00,45.7,33.4,30.58,ENE,71,5.0,14.0,62,0.00,,---,0.00,VWS V14.01,2013-11-04 16:17:00,
2013-11-04 11:22:00,45.5,34.0,30.58,NW,321,11.0,14.0,64,0.00,,---,0.00,VWS V14.01,2013-11-04 16:22:00,
2013-11-04 11:27:00,45.2,33.8,30.58,NNW,335,4.0,14.0,64,0.00,,---,0.00,VWS V14.01,2013-11-04 16:27:00,
2013-11-04 11:32:00,45.5,34.4,30.58,NE,50,2.0,9.0,65,0.00,,---,0.00,VWS V14.01,2013-11-04 16:32:00,
2013-11-04 11:38:00,45.7,34.2,30.58,WNW,299,4.0,14.0,64,0.00,,---,0.00,VWS V14.01,2013-11-04 16:38:00,
2013-11-04 11:43:00,45.4,34.3,30.58,ENE,60,6.0,14.0,65,0.00,,---,0.00,VWS V14.01,2013-11-04 16:43:00,
2013-11-04 11:48:00,45.5,34.0,30.58,West,270,9.0,14.0,64,0.00,,---,0.00,VWS V14.01,2013-11-04 16:48:00,
2013-11-04 11:53:00,45.4,34.3,30.58,NNW,332,4.0,16.0,65,0.00,,---,0.00,VWS V14.01,2013-11-04 16:53:00,
2013-11-04 11:58:00,45.2,34.2,30.58,East,86,5.0,16.0,65,0.00,,---,0.00,VWS V14.01,2013-11-04 16:58:00,
2013-11-04 12:03:00,45.6,34.1,30.58,SE,141,4.0,11.0,64,0.00,,---,0.00,VWS V14.01,2013-11-04 17:03:00,
2013-11-04 12:08:00,45.9,34.0,30.58,NNE,30,10.0,17.0,63,0.00,,---,0.00,VWS V14.01,2013-11-04 17:08:00,
2013-11-04 12:13:00,46.1,34.2,30.58,NNE,30,6.0,17.0,63,0.00,,---,0.00,VWS V14.01,2013-11-04 17:13:00,
2013-11-04 12:18:00,46.0,34.5,30.58,SW,214,6.0,17.0,64,0.00,,---,0.00,VWS V14.01,2013-11-04 17:18:00,
2013-11-04 12:23:00,45.7,34.2,30.58,ENE,57,7.0,17.0,64,0.00,,---,0.00,VWS V14.01,2013-11-04 17:23:00,
2013-11-04 12:28:00,46.1,35.0,30.57,NE,45,1.0,17.0,65,0.00,,---,0.00,VWS V14.01,2013-11-04 17:28:00,
2013-11-04 12:33:00,46.5,35.0,30.57,NNE,25,9.0,12.0,64,0.00,,---,0.00,VWS V14.01,2013-11-04 17:33:00,
2013-11-04 12:38:00,46.3,34.4,30.57,North,357,7.0,13.0,63,0.00,,---,0.00,VWS V14.01,2013-11-04 17:38:00,
2013-11-04 12:43:00,46.7,34.8,30.57,NNW,336,11.0,15.0,63,0.00,,---,0.00,VWS V14.01,2013-11-04 17:43:00,
2013-11-04 12:48:00,46.7,34.8,30.57,North,359,9.0,15.0,63,0.00,,---,0.00,VWS V14.01,2013-11-04 17:48:00,
2013-11-04 12:53:00,46.7,34.8,30.57,NE,51,5.0,15.0,63,0.00,,---,0.00,VWS V14.01,2013-11-04 17:53:00,
2013-11-04 12:58:00,46.9,34.6,30.57,WSW,243,4.0,15.0,62,0.00,,---,0.00,VWS V14.01,2013-11-04 17:58:00,
2013-11-04 13:03:00,47.4,35.0,30.57,North,356,4.0,12.0,62,0.00,,---,0.00,VWS V14.01,2013-11-04 18:03:00,
2013-11-04 13:08:00,46.9,35.0,30.57,NNE,19,7.0,13.0,63,0.00,,---,0.00,VWS V14.01,2013-11-04 18:08:00,
2013-11-04 13:13:00,46.6,34.7,30.57,NNW,338,6.0,13.0,63,0.00,,---,0.00,VWS V14.01,2013-11-04 18:13:00,
2013-11-04 13:18:00,47.1,35.2,30.57,NNE,21,3.0,16.0,63,0.00,,---,0.00,VWS V14.01,2013-11-04 18:18:00,
2013-11-04 13:23:00,46.9,35.4,30.57,NE,40,8.0,16.0,64,0.00,,---,0.00,VWS V14.01,2013-11-04 18:23:00,
2013-11-04 13:28:00,47.1,35.2,30.57,NNW,331,7.0,16.0,63,0.00,,---,0.00,VWS V14.01,2013-11-04 18:28:00,
2013-11-04 13:33:00,46.8,34.5,30.57,North,355,14.0,15.0,62,0.00,,---,0.00,VWS V14.01,2013-11-04 18:33:00,
2013-11-04 13:38:00,47.0,35.1,30.57,North,5,7.0,15.0,63,0.00,,---,0.00,VWS V14.01,2013-11-04 18:38:00,
2013-11-04 13:43:00,47.1,34.8,30.57,NE,36,8.0,15.0,62,0.00,,---,0.00,VWS V14.01,2013-11-04 18:43:00,
2013-11-04 13:48:00,47.2,35.7,30.56,NE,47,3.0,15.0,64,0.00,,---,0.00,VWS V14.01,2013-11-04 18:48:00,
2013-11-04 13:53:00,47.2,34.5,30.56,NNE,20,4.0,15.0,61,0.00,,---,0.00,VWS V14.01,2013-11-04 18:53:00,
2013-11-04 13:58:00,47.2,35.3,30.56,NNE,21,5.0,15.0,63,0.00,,---,0.00,VWS V14.01,2013-11-04 18:58:00,
2013-11-04 14:03:00,47.2,34.9,30.57,NE,34,4.0,11.0,62,0.00,,---,0.00,VWS V14.01,2013-11-04 19:03:00,
2013-11-04 14:08:00,47.1,35.2,30.57,NE,55,8.0,13.0,63,0.00,,---,0.00,VWS V14.01,2013-11-04 19:08:00,
2013-11-04 14:13:00,46.9,35.0,30.57,NE,51,3.0,14.0,63,0.00,,---,0.00,VWS V14.01,2013-11-04 19:13:00,
2013-11-04 14:18:00,46.7,34.8,30.57,NW,310,7.0,14.0,63,0.00,,---,0.00,VWS V14.01,2013-11-04 19:18:00,
2013-11-04 14:23:00,46.7,35.2,30.57,NNE,28,5.0,14.0,64,0.00,,---,0.00,VWS V14.01,2013-11-04 19:23:00,
2013-11-04 14:28:00,46.9,35.4,30.57,North,4,9.0,14.0,64,0.00,,---,0.00,VWS V14.01,2013-11-04 19:28:00,
2013-11-04 14:33:00,46.9,35.0,30.57,NE,38,8.0,13.0,63,0.00,,---,0.00,VWS V14.01,2013-11-04 19:33:00,
2013-11-04 14:38:00,46.4,34.9,30.57,NW,309,2.0,13.0,64,0.00,,---,0.00,VWS V14.01,2013-11-04 19:38:00,
2013-11-04 14:43:00,46.1,34.6,30.57,West,273,4.0,13.0,64,0.00,,---,0.00,VWS V14.01,2013-11-04 19:43:00,
2013-11-04 14:48:00,45.9,34.8,30.57,ENE,72,6.0,13.0,65,0.00,,---,0.00,VWS V14.01,2013-11-04 19:48:00,
2013-11-04 14:53:00,45.8,34.7,30.57,NNE,13,3.0,13.0,65,0.00,,---,0.00,VWS V14.01,2013-11-04 19:53:00,
2013-11-04 14:58:00,45.6,34.5,30.57,North,10,10.0,18.0,65,0.00,,---,0.00,VWS V14.01,2013-11-04 19:58:00,
2013-11-04 15:03:00,45.6,34.9,30.57,North,355,4.0,9.0,66,0.00,,---,0.00,VWS V14.01,2013-11-04 20:03:00,
2013-11-04 15:08:00,45.6,34.9,30.57,NE,41,12.0,12.0,66,0.00,,---,0.00,VWS V14.01,2013-11-04 20:08:00,
2013-11-04 15:13:00,45.4,34.7,30.57,NNW,340,6.0,16.0,66,0.00,,---,0.00,VWS V14.01,2013-11-04 20:13:00,
2013-11-04 15:18:00,45.3,34.6,30.58,North,356,10.0,16.0,66,0.00,,---,0.00,VWS V14.01,2013-11-04 20:18:00,
2013-11-04 15:23:00,45.4,35.1,30.58,NNE,18,3.0,16.0,67,0.00,,---,0.00,VWS V14.01,2013-11-04 20:23:00,
2013-11-04 15:28:00,45.3,35.0,30.58,NNE,13,9.0,16.0,67,0.00,,---,0.00,VWS V14.01,2013-11-04 20:28:00,
2013-11-04 15:33:00,45.3,35.4,30.58,NNE,27,4.0,9.0,68,0.00,,---,0.00,VWS V14.01,2013-11-04 20:33:00,
2013-11-04 15:38:00,45.1,35.2,30.58,NNW,347,10.0,13.0,68,0.00,,---,0.00,VWS V14.01,2013-11-04 20:38:00,
2013-11-04 15:43:00,45.0,35.1,30.58,NNW,327,8.0,13.0,68,0.00,,---,0.00,VWS V14.01,2013-11-04 20:43:00,
2013-11-04 15:48:00,45.0,35.1,30.58,NE,38,1.0,13.0,68,0.00,,---,0.00,VWS V14.01,2013-11-04 20:48:00,
2013-11-04 15:53:00,44.9,35.0,30.58,WNW,301,4.0,13.0,68,0.00,,---,0.00,VWS V14.01,2013-11-04 20:53:00,
2013-11-04 15:58:00,44.8,34.9,30.58,WNW,291,2.0,13.0,68,0.00,,---,0.00,VWS V14.01,2013-11-04 20:58:00,
2013-11-04 16:03:00,44.7,35.2,30.58,NNW,342,5.0,14.0,69,0.00,,---,0.00,VWS V14.01,2013-11-04 21:03:00,
2013-11-04 16:08:00,44.7,35.2,30.58,NW,309,8.0,14.0,69,0.00,,---,0.00,VWS V14.01,2013-11-04 21:08:00,
2013-11-04 16:13:00,44.5,35.0,30.58,NW,322,5.0,14.0,69,0.00,,---,0.00,VWS V14.01,2013-11-04 21:13:00,
2013-11-04 16:18:00,44.5,35.3,30.58,East,95,7.0,14.0,70,0.00,,---,0.00,VWS V14.01,2013-11-04 21:18:00,
2013-11-04 16:23:00,44.4,35.2,30.59,East,92,6.0,14.0,70,0.00,,---,0.00,VWS V14.01,2013-11-04 21:23:00,
2013-11-04 16:28:00,44.3,35.2,30.58,NW,321,4.0,14.0,70,0.00,,---,0.00,VWS V14.01,2013-11-04 21:28:00,
2013-11-04 16:33:00,44.3,35.2,30.59,WNW,301,3.0,9.0,70,0.00,,---,0.00,VWS V14.01,2013-11-04 21:33:00,
2013-11-04 16:39:00,44.3,35.5,30.58,North,11,2.0,10.0,71,0.00,,---,0.00,VWS V14.01,2013-11-04 21:39:00,
2013-11-04 16:44:00,44.3,35.5,30.58,WSW,248,5.0,11.0,71,0.00,,---,0.00,VWS V14.01,2013-11-04 21:44:00,
2013-11-04 16:49:00,44.3,35.9,30.58,North,349,3.0,11.0,72,0.00,,---,0.00,VWS V14.01,2013-11-04 21:49:00,
2013-11-04 16:54:00,44.2,35.8,30.58,NW,316,6.0,11.0,72,0.00,,---,0.00,VWS V14.01,2013-11-04 21:54:00,
2013-11-04 16:59:00,44.2,35.8,30.58,NNW,333,1.0,11.0,72,0.00,,---,0.00,VWS V14.01,2013-11-04 21:59:00,
2013-11-04 17:04:00,44.1,36.0,30.59,NW,320,6.0,9.0,73,0.00,,---,0.00,VWS V14.01,2013-11-04 22:04:00,
2013-11-04 17:09:00,44.1,36.0,30.59,North,2,9.0,11.0,73,0.00,,---,0.00,VWS V14.01,2013-11-04 22:09:00,
2013-11-04 17:14:00,44.1,35.7,30.59,NW,323,4.0,12.0,72,0.00,,---,0.00,VWS V14.01,2013-11-04 22:14:00,
2013-11-04 17:19:00,44.1,35.7,30.59,WNW,298,4.0,12.0,72,0.00,,---,0.00,VWS V14.01,2013-11-04 22:19:00,
2013-11-04 17:24:00,44.2,36.1,30.59,NE,40,8.0,12.0,73,0.00,,---,0.00,VWS V14.01,2013-11-04 22:24:00,
2013-11-04 17:29:00,44.2,36.1,30.59,North,10,6.0,12.0,73,0.00,,---,0.00,VWS V14.01,2013-11-04 22:29:00,
2013-11-04 17:34:00,44.1,35.7,30.59,NNW,327,4.0,12.0,72,0.00,,---,0.00,VWS V14.01,2013-11-04 22:34:00,
2013-11-04 17:39:00,44.0,35.6,30.59,WNW,283,9.0,12.0,72,0.00,,---,0.00,VWS V14.01,2013-11-04 22:39:00,
2013-11-04 17:44:00,44.0,35.2,30.59,WNW,294,7.0,12.0,71,0.00,,---,0.00,VWS V14.01,2013-11-04 22:44:00,
2013-11-04 17:49:00,44.0,35.6,30.59,NW,307,6.0,12.0,72,0.00,,---,0.00,VWS V14.01,2013-11-04 22:49:00,
2013-11-04 17:54:00,44.0,35.2,30.60,NNW,344,4.0,12.0,71,0.00,,---,0.00,VWS V14.01,2013-11-04 22:54:00,
2013-11-04 17:59:00,43.9,35.1,30.59,NNE,26,9.0,13.0,71,0.00,,---,0.00,VWS V14.01,2013-11-04 22:59:00,
2013-11-04 18:04:00,43.9,35.5,30.60,West,268,4.0,12.0,72,0.00,,---,0.00,VWS V14.01,2013-11-04 23:04:00,
2013-11-04 18:09:00,43.9,35.5,30.59,NNW,339,5.0,12.0,72,0.00,,---,0.00,VWS V14.01,2013-11-04 23:09:00,
2013-11-04 18:14:00,43.8,35.4,30.59,NNW,328,5.0,12.0,72,0.00,,---,0.00,VWS V14.01,2013-11-04 23:14:00,
2013-11-04 18:19:00,43.6,35.2,30.59,West,281,4.0,12.0,72,0.00,,---,0.00,VWS V14.01,2013-11-04 23:19:00,
2013-11-04 18:24:00,43.5,35.4,30.59,NNW,327,8.0,16.0,73,0.00,,---,0.00,VWS V14.01,2013-11-04 23:24:00,
2013-11-04 18:29:00,43.4,35.3,30.59,North,3,5.0,16.0,73,0.00,,---,0.00,VWS V14.01,2013-11-04 23:29:00,
2013-11-04 18:34:00,43.3,35.2,30.59,NNW,348,3.0,10.0,73,0.00,,---,0.00,VWS V14.01,2013-11-04 23:34:00,
2013-11-04 18:39:00,43.3,35.6,30.59,NW,320,4.0,10.0,74,0.00,,---,0.00,VWS V14.01,2013-11-04 23:39:00,
2013-11-04 18:44:00,43.2,35.5,30.59,NW,308,5.0,10.0,74,0.00,,---,0.00,VWS V14.01,2013-11-04 23:44:00,
2013-11-04 18:49:00,43.2,35.8,30.59,NNW,337,6.0,10.0,75,0.00,,---,0.00,VWS V14.01,2013-11-04 23:49:00,
2013-11-04 18:54:00,43.2,35.8,30.59,West,264,5.0,10.0,75,0.00,,---,0.00,VWS V14.01,2013-11-04 23:54:00,
2013-11-04 18:59:00,43.2,35.8,30.59,NNE,31,5.0,10.0,75,0.00,,---,0.00,VWS V14.01,2013-11-04 23:59:00,
2013-11-04 19:04:00,43.3,36.3,30.58,NW,305,5.0,8.0,76,0.00,,---,0.00,VWS V14.01,2013-11-05 00:04:00,
2013-11-04 19:09:00,43.5,36.5,30.58,North,355,4.0,10.0,76,0.00,,---,0.00,VWS V14.01,2013-11-05 00:09:00,
2013-11-04 19:14:00,43.6,36.5,30.58,NW,312,2.0,11.0,76,0.00,,---,0.00,VWS V14.01,2013-11-05 00:14:00,
2013-11-04 19:19:00,43.8,36.7,30.58,North,354,3.0,14.0,76,0.00,,---,0.00,VWS V14.01,2013-11-05 00:19:00,
2013-11-04 19:24:00,43.9,37.2,30.58,NE,46,3.0,14.0,77,0.00,,---,0.00,VWS V14.01,2013-11-05 00:24:00,
2013-11-04 19:29:00,45.3,38.5,30.58,NNE,30,6.0,14.0,77,0.00,,---,0.00,VWS V14.01,2013-11-05 00:29:00,
2013-11-04 19:34:00,46.8,39.3,30.58,North,356,5.0,12.0,75,0.00,,---,0.00,VWS V14.01,2013-11-05 00:34:00,
2013-11-04 19:39:00,47.5,38.9,30.58,ENE,58,11.0,15.0,72,0.00,,---,0.00,VWS V14.01,2013-11-05 00:39:00,
2013-11-04 19:44:00,47.8,38.5,30.58,ENE,70,11.0,15.0,70,0.00,,---,0.00,VWS V14.01,2013-11-05 00:44:00,
2013-11-04 19:49:00,48.1,38.4,30.58,NE,55,8.0,15.0,69,0.00,,---,0.00,VWS V14.01,2013-11-05 00:49:00,
2013-11-04 19:54:00,48.1,38.0,30.58,East,86,10.0,15.0,68,0.00,,---,0.00,VWS V14.01,2013-11-05 00:54:00,
2013-11-04 19:59:00,48.2,38.5,30.58,ENE,60,11.0,15.0,69,0.00,,---,0.00,VWS V14.01,2013-11-05 00:59:00,
2013-11-04 20:04:00,48.3,38.2,30.58,NE,37,7.0,13.0,68,0.00,,---,0.00,VWS V14.01,2013-11-05 01:04:00,
2013-11-04 20:09:00,48.4,38.3,30.58,ENE,61,9.0,16.0,68,0.00,,---,0.00,VWS V14.01,2013-11-05 01:09:00,
2013-11-04 20:14:00,48.4,38.7,30.58,ENE,65,12.0,16.0,69,0.00,,---,0.00,VWS V14.01,2013-11-05 01:14:00,
2013-11-04 20:19:00,48.6,39.3,30.58,ENE,66,13.0,17.0,70,0.00,,---,0.00,VWS V14.01,2013-11-05 01:19:00,
2013-11-04 20:24:00,48.8,39.1,30.58,ENE,72,12.0,17.0,69,0.00,,---,0.00,VWS V14.01,2013-11-05 01:24:00,
2013-11-04 20:29:00,48.8,38.0,30.57,ENE,61,13.0,19.0,66,0.00,,---,0.00,VWS V14.01,2013-11-05 01:29:00,
2013-11-04 20:34:00,48.8,39.1,30.58,ENE,68,10.0,16.0,69,0.00,,---,0.00,VWS V14.01,2013-11-05 01:34:00,
2013-11-04 20:39:00,49.0,39.7,30.58,ENE,61,13.0,17.0,70,0.00,,---,0.00,VWS V14.01,2013-11-05 01:39:00,
2013-11-04 20:44:00,49.1,39.8,30.58,ENE,59,15.0,18.0,70,0.00,,---,0.00,VWS V14.01,2013-11-05 01:44:00,
2013-11-04 20:49:00,49.1,39.0,30.58,ENE,60,12.0,18.0,68,0.00,,---,0.00,VWS V14.01,2013-11-05 01:49:00,
2013-11-04 20:54:00,49.2,39.5,30.58,ENE,70,12.0,18.0,69,0.00,,---,0.00,VWS V14.01,2013-11-05 01:54:00,
2013-11-04 20:59:00,49.2,39.1,30.58,ENE,71,14.0,18.0,68,0.00,,---,0.00,VWS V14.01,2013-11-05 01:59:00,
2013-11-04 21:04:00,49.3,38.8,30.59,NE,54,16.0,17.0,67,0.00,,---,0.00,VWS V14.01,2013-11-05 02:04:00,
2013-11-04 21:09:00,49.2,38.3,30.59,ENE,63,10.0,17.0,66,0.00,,---,0.00,VWS V14.01,2013-11-05 02:09:00,
2013-11-04 21:14:00,49.3,39.6,30.59,ENE,68,11.0,17.0,69,0.00,,---,0.00,VWS V14.01,2013-11-05 02:14:00,
2013-11-04 21:19:00,49.4,40.0,30.60,NE,51,9.0,17.0,70,0.00,,---,0.00,VWS V14.01,2013-11-05 02:19:00,
2013-11-04 21:24:00,49.3,39.6,30.60,NE,38,9.0,17.0,69,0.00,,---,0.00,VWS V14.01,2013-11-05 02:24:00,
2013-11-04 21:29:00,49.4,40.4,30.60,ENE,69,12.0,17.0,71,0.00,,---,0.00,VWS V14.01,2013-11-05 02:29:00,
2013-11-04 21:34:00,49.4,38.5,30.59,ENE,65,11.0,13.0,66,0.00,,---,0.00,VWS V14.01,2013-11-05 02:34:00,
2013-11-04 21:39:00,49.4,38.9,30.60,ENE,76,12.0,15.0,67,0.00,,---,0.00,VWS V14.01,2013-11-05 02:39:00,
2013-11-04 21:44:00,49.4,38.9,30.59,NE,49,12.0,15.0,67,0.00,,---,0.00,VWS V14.01,2013-11-05 02:44:00,
2013-11-04 21:49:00,49.6,39.5,30.59,ENE,63,10.0,15.0,68,0.00,,---,0.00,VWS V14.01,2013-11-05 02:49:00,
2013-11-04 21:54:00,49.6,39.9,30.60,NNE,32,10.0,15.0,69,0.00,,---,0.00,VWS V14.01,2013-11-05 02:54:00,
2013-11-04 21:59:00,49.5,39.4,30.60,ENE,72,12.0,15.0,68,0.00,,---,0.00,VWS V14.01,2013-11-05 02:59:00,
2013-11-04 22:04:00,49.6,39.5,30.60,ENE,68,10.0,11.0,68,0.00,,---,0.00,VWS V14.01,2013-11-05 03:04:00,
2013-11-04 22:09:00,49.6,39.5,30.60,ENE,70,10.0,12.0,68,0.00,,---,0.00,VWS V14.01,2013-11-05 03:09:00,
2013-11-04 22:14:00,49.8,40.0,30.59,ENE,73,8.0,14.0,69,0.00,,---,0.00,VWS V14.01,2013-11-05 03:14:00,
2013-11-04 22:19:00,49.9,39.4,30.59,ESE,104,9.0,14.0,67,0.00,,---,0.00,VWS V14.01,2013-11-05 03:19:00,
2013-11-04 22:24:00,49.8,39.3,30.60,ENE,58,5.0,14.0,67,0.00,,---,0.00,VWS V14.01,2013-11-05 03:24:00,
2013-11-04 22:29:00,50.0,41.0,30.60,ENE,64,11.0,14.0,71,0.00,,---,0.00,VWS V14.01,2013-11-05 03:29:00,
2013-11-04 22:34:00,50.0,39.5,30.59,ENE,65,10.0,11.0,67,0.00,,---,0.00,VWS V14.01,2013-11-05 03:34:00,
2013-11-04 22:39:00,49.9,40.5,30.59,East,83,8.0,13.0,70,0.00,,---,0.00,VWS V14.01,2013-11-05 03:39:00,
2013-11-04 22:44:00,50.0,40.6,30.59,ENE,65,12.0,16.0,70,0.00,,---,0.00,VWS V14.01,2013-11-05 03:44:00,
2013-11-04 22:49:00,50.0,41.0,30.59,NE,44,10.0,16.0,71,0.00,,---,0.00,VWS V14.01,2013-11-05 03:49:00,
2013-11-04 22:54:00,50.1,40.3,30.59,NE,56,8.0,16.0,69,0.00,,---,0.00,VWS V14.01,2013-11-05 03:54:00,
2013-11-04 22:59:00,50.1,41.1,30.59,ENE,65,7.0,16.0,71,0.00,,---,0.00,VWS V14.01,2013-11-05 03:59:00,
2013-11-04 23:04:00,50.2,40.4,30.59,NE,48,8.0,12.0,69,0.00,,---,0.00,VWS V14.01,2013-11-05 04:04:00,
2013-11-04 23:09:00,50.3,40.2,30.59,ENE,62,10.0,12.0,68,0.00,,---,0.00,VWS V14.01,2013-11-05 04:09:00,
2013-11-04 23:14:00,50.3,39.8,30.59,ENE,65,8.0,12.0,67,0.00,,---,0.00,VWS V14.01,2013-11-05 04:14:00,
2013-11-04 23:19:00,50.4,40.2,30.59,ENE,60,8.0,12.0,68,0.00,,---,0.00,VWS V14.01,2013-11-05 04:19:00,
2013-11-04 23:24:00,50.5,40.0,30.59,ENE,67,5.0,14.0,67,0.00,,---,0.00,VWS V14.01,2013-11-05 04:24:00,
2013-11-04 23:29:00,50.6,40.8,30.59,ENE,75,7.0,14.0,69,0.00,,---,0.00,VWS V14.01,2013-11-05 04:29:00,
2013-11-04 23:34:00,50.5,40.3,30.59,NE,48,7.0,7.0,68,0.00,,---,0.00,VWS V14.01,2013-11-05 04:34:00,
2013-11-04 23:39:00,50.6,39.7,30.59,ENE,58,6.0,11.0,66,0.00,,---,0.00,VWS V14.01,2013-11-05 04:39:00,
2013-11-04 23:44:00,50.7,40.9,30.58,NE,47,9.0,11.0,69,0.00,,---,0.00,VWS V14.01,2013-11-05 04:44:00,
2013-11-04 23:49:00,50.7,39.8,30.58,ENE,67,9.0,12.0,66,0.00,,---,0.00,VWS V14.01,2013-11-05 04:49:00,
2013-11-04 23:54:00,50.9,40.3,30.58,East,85,10.0,12.0,67,0.00,,---,0.00,VWS V14.01,2013-11-05 04:54:00,
2013-11-04 23:59:00,50.9,40.7,30.59,ENE,61,10.0,12.0,68,0.00,,---,0.00,VWS V14.01,2013-11-05 04:59:00,